TimeCST,TemperatureF,Dew PointF,Humidity,Sea Level PressureIn,VisibilityMPH,Wind Direction,Wind SpeedMPH,Gust SpeedMPH,PrecipitationIn,Events,Conditions,WindDirDegrees,DateUTC
12:10 AM,6.8,3.2,85,30.57,10.0,South,10.4,-,N/A,,Clear,180,2013-11-24 06:10:00
12:30 AM,6.8,1.4,79,30.55,10.0,South,12.7,-,N/A,,Clear,180,2013-11-24 06:30:00
12:50 AM,8.6,3.2,79,30.55,10.0,South,11.5,-,N/A,,Clear,190,2013-11-24 06:50:00
1:10 AM,8.6,3.2,79,30.52,10.0,South,11.5,-,N/A,,Clear,190,2013-11-24 07:10:00
1:30 AM,8.6,3.2,79,30.52,10.0,South,13.8,-,N/A,,Clear,180,2013-11-24 07:30:00
1:50 AM,10.4,3.2,73,30.51,10.0,South,12.7,-,N/A,,Clear,190,2013-11-24 07:50:00
2:10 AM,10.4,3.2,73,30.51,10.0,South,15.0,-,N/A,,Clear,180,2013-11-24 08:10:00
2:30 AM,10.4,3.2,73,30.50,10.0,South,11.5,-,N/A,,Clear,180,2013-11-24 08:30:00
2:50 AM,10.4,5.0,79,30.49,10.0,South,11.5,-,N/A,,Clear,180,2013-11-24 08:50:00
3:10 AM,10.4,5.0,79,30.47,10.0,South,13.8,-,N/A,,Clear,170,2013-11-24 09:10:00
3:30 AM,10.4,5.0,79,30.46,10.0,South,13.8,-,N/A,,Clear,180,2013-11-24 09:30:00
3:50 AM,10.4,5.0,79,30.44,10.0,South,17.3,-,N/A,,Clear,190,2013-11-24 09:50:00
4:10 AM,10.4,5.0,79,30.43,10.0,South,16.1,-,N/A,,Clear,190,2013-11-24 10:10:00
4:30 AM,12.2,5.0,73,30.42,10.0,South,15.0,-,N/A,,Clear,190,2013-11-24 10:30:00
4:50 AM,12.2,5.0,73,30.41,10.0,South,16.1,-,N/A,,Clear,190,2013-11-24 10:50:00
5:10 AM,12.2,6.8,79,30.41,10.0,South,16.1,-,N/A,,Clear,190,2013-11-24 11:10:00
5:30 AM,12.2,6.8,79,30.40,10.0,South,16.1,-,N/A,,Clear,190,2013-11-24 11:30:00
5:50 AM,12.2,6.8,79,30.39,10.0,South,17.3,21.9,N/A,,Clear,190,2013-11-24 11:50:00
6:10 AM,14.0,6.8,73,30.37,10.0,SSW,18.4,23.0,N/A,,Clear,200,2013-11-24 12:10:00
6:30 AM,14.0,6.8,73,30.36,10.0,SSW,18.4,25.3,N/A,,Clear,200,2013-11-24 12:30:00
6:50 AM,14.0,6.8,73,30.36,10.0,SSW,17.3,26.5,N/A,,Clear,200,2013-11-24 12:50:00
7:10 AM,14.0,6.8,73,30.35,10.0,South,17.3,-,N/A,,Clear,190,2013-11-24 13:10:00
7:30 AM,14.0,8.6,79,30.35,10.0,SSW,17.3,-,N/A,,Clear,200,2013-11-24 13:30:00
7:50 AM,14.0,8.6,79,30.34,10.0,SSW,17.3,24.2,N/A,,Clear,200,2013-11-24 13:50:00
8:10 AM,14.0,8.6,79,30.33,10.0,SSW,18.4,21.9,N/A,,Clear,200,2013-11-24 14:10:00
8:30 AM,15.8,10.4,79,30.32,10.0,SSW,20.7,27.6,N/A,,Clear,200,2013-11-24 14:30:00
8:50 AM,17.6,10.4,73,30.32,10.0,SSW,20.7,26.5,N/A,,Clear,200,2013-11-24 14:50:00
9:10 AM,17.6,12.2,79,30.31,10.0,SSW,23.0,28.8,N/A,,Clear,200,2013-11-24 15:10:00
9:30 AM,19.4,14.0,80,30.30,10.0,SSW,19.6,27.6,N/A,,Clear,200,2013-11-24 15:30:00
9:50 AM,21.2,14.0,74,30.29,10.0,SSW,19.6,26.5,N/A,,Clear,200,2013-11-24 15:50:00
10:10 AM,23.0,15.8,74,30.28,10.0,SSW,21.9,26.5,N/A,,Clear,200,2013-11-24 16:10:00
10:30 AM,23.0,15.8,74,30.27,10.0,SSW,23.0,31.1,N/A,,Clear,210,2013-11-24 16:30:00
10:50 AM,24.8,17.6,74,30.26,10.0,SSW,23.0,26.5,N/A,,Clear,210,2013-11-24 16:50:00
11:10 AM,26.6,17.6,69,30.24,10.0,SSW,26.5,-,N/A,,Clear,210,2013-11-24 17:10:00
11:30 AM,28.4,17.6,64,30.23,10.0,SSW,21.9,29.9,N/A,,Clear,210,2013-11-24 17:30:00
11:50 AM,28.4,19.4,69,30.21,10.0,SSW,21.9,27.6,N/A,,Clear,210,2013-11-24 17:50:00
12:10 PM,32.0,19.4,60,30.20,10.0,SSW,18.4,29.9,N/A,,Clear,210,2013-11-24 18:10:00
12:30 PM,32.0,19.4,60,30.18,10.0,SSW,23.0,28.8,N/A,,Clear,210,2013-11-24 18:30:00
12:50 PM,32.0,19.4,60,30.16,10.0,SSW,27.6,32.2,N/A,,Clear,210,2013-11-24 18:50:00
1:10 PM,33.8,19.4,56,30.14,10.0,SSW,27.6,32.2,N/A,,Clear,210,2013-11-24 19:10:00
1:30 PM,33.8,19.4,56,30.12,10.0,SSW,23.0,33.4,N/A,,Clear,210,2013-11-24 19:30:00
1:50 PM,35.6,21.2,56,30.11,10.0,SSW,27.6,34.5,N/A,,Clear,210,2013-11-24 19:50:00
2:10 PM,35.6,23.0,60,30.09,10.0,SSW,27.6,39.1,N/A,,Clear,210,2013-11-24 20:10:00
2:30 PM,35.6,23.0,60,30.07,10.0,SSW,28.8,36.8,N/A,,Clear,210,2013-11-24 20:30:00
2:50 PM,35.6,23.0,60,30.07,10.0,SSW,28.8,34.5,N/A,,Clear,210,2013-11-24 20:50:00
3:10 PM,37.4,24.8,60,30.05,10.0,SSW,26.5,33.4,N/A,,Clear,210,2013-11-24 21:10:00
3:30 PM,37.4,24.8,60,30.05,10.0,SSW,21.9,29.9,N/A,,Clear,200,2013-11-24 21:30:00
3:50 PM,37.4,24.8,60,30.06,10.0,SSW,20.7,29.9,N/A,,Clear,210,2013-11-24 21:50:00
4:10 PM,35.6,24.8,65,30.06,10.0,SSW,19.6,29.9,N/A,,Clear,200,2013-11-24 22:10:00
4:30 PM,35.6,24.8,65,30.05,10.0,SSW,18.4,24.2,N/A,,Clear,210,2013-11-24 22:30:00
4:50 PM,35.6,24.8,65,30.04,10.0,SSW,17.3,23.0,N/A,,Clear,210,2013-11-24 22:50:00
5:10 PM,33.8,24.8,70,30.03,10.0,SSW,18.4,23.0,N/A,,Clear,210,2013-11-24 23:10:00
5:30 PM,33.8,26.6,75,30.02,10.0,SSW,18.4,-,N/A,,Clear,210,2013-11-24 23:30:00
5:50 PM,33.8,26.6,75,30.02,10.0,SSW,16.1,21.9,N/A,,Clear,200,2013-11-24 23:50:00
6:10 PM,32.0,26.6,80,30.00,10.0,SSW,19.6,24.2,N/A,,Clear,200,2013-11-25 00:10:00
6:30 PM,33.8,26.6,75,29.99,10.0,SSW,20.7,28.8,N/A,,Clear,200,2013-11-25 00:30:00
6:50 PM,33.8,26.6,75,29.99,10.0,SSW,21.9,29.9,N/A,,Clear,210,2013-11-25 00:50:00
7:10 PM,32.0,26.6,80,29.98,10.0,SSW,23.0,27.6,N/A,,Clear,210,2013-11-25 01:10:00
7:30 PM,33.8,28.4,81,29.97,10.0,SSW,27.6,34.5,N/A,,Clear,210,2013-11-25 01:30:00
7:50 PM,32.0,28.4,87,29.97,10.0,SW,25.3,38.0,N/A,,Clear,220,2013-11-25 01:50:00
8:10 PM,32.0,28.4,87,29.96,10.0,SSW,23.0,32.2,N/A,,Clear,210,2013-11-25 02:10:00
8:30 PM,32.0,28.4,87,29.97,10.0,SW,21.9,31.1,N/A,,Clear,220,2013-11-25 02:30:00
8:50 PM,32.0,28.4,87,29.97,10.0,SW,25.3,32.2,N/A,,Clear,220,2013-11-25 02:50:00
9:10 PM,32.0,28.4,87,29.98,10.0,SW,18.4,27.6,N/A,,Clear,220,2013-11-25 03:10:00
9:30 PM,32.0,28.4,87,29.97,10.0,SW,20.7,27.6,N/A,,Clear,220,2013-11-25 03:30:00
9:50 PM,32.0,28.4,87,29.98,10.0,SW,15.0,25.3,N/A,,Clear,220,2013-11-25 03:50:00
10:10 PM,30.2,26.6,86,29.98,10.0,SSW,18.4,24.2,N/A,,Clear,210,2013-11-25 04:10:00
10:30 PM,30.2,26.6,86,29.97,10.0,SW,17.3,23.0,N/A,,Clear,220,2013-11-25 04:30:00
10:50 PM,30.2,26.6,86,29.97,10.0,SW,15.0,23.0,N/A,,Clear,220,2013-11-25 04:50:00
11:10 PM,30.2,26.6,86,29.96,10.0,SW,16.1,24.2,N/A,,Clear,220,2013-11-25 05:10:00
11:30 PM,30.2,28.4,93,29.95,10.0,SW,18.4,24.2,N/A,,Clear,220,2013-11-25 05:30:00
11:50 PM,30.2,28.4,93,29.96,10.0,SW,18.4,25.3,N/A,,Clear,230,2013-11-25 05:50:00